Simultaneous Nadir Overpasses (SNOs) Predictions

Prediction of SNOs between AQUA and GOES-15 Satellite Orbit:

Table of predicted SNOs for the next 14.0 days since TLE Epoch: 11/24/2017
Index Date Time (AQUA) AQUA Lat,Lon GOES-15 Lat,Lon Distance(km) Time Diff (sec)
1 11/25/2017 22:34:57 0.04,-134.88 -0.02,-135.14 29.70 80
2 11/27/2017 22:22:46 0.67,-131.92 -0.02,-135.18 371.05 80
3 11/28/2017 10:44:03 0.36,-137.09 0.01,-135.29 203.88 80
4 11/30/2017 10:31:52 -0.27,-134.13 0.01,-135.33 136.76 80
5 11/30/2017 22:53:14 -0.88,-139.31 0.01,-135.24 463.52 80
6 12/02/2017 10:19:40 -0.85,-131.16 0.02,-135.36 476.58 80
7 12/02/2017 22:41:04 -0.24,-136.36 -0.00,-135.27 123.85 80
8 12/04/2017 22:28:53 0.41,-133.40 -0.01,-135.29 214.92 80
9 12/05/2017 10:50:08 0.69,-138.56 -0.01,-135.39 360.85 80
10 12/07/2017 10:37:57 0.04,-135.60 -0.01,-135.40 22.85 80




NCC Satellite Simultaneous Nadir Overpasses (SNOs) Prediction Service
